Location: Unspecified
(0.0000°N, 0.0000°E)
Time: 10:13:54
(UTC+00:00)

deb Briz - Pass Details

Date: 20 February 2026
Orbit: 1949 x 2166 km, 64.8° (Epoch: 9 March)

Event Time Altitude Azimuth Distance (km) Brightness Sun altitude
Rises 03:16:29 0° 10° (N) 5,572 ? -43.3°
Reaches altitude 10° 03:21:31 10° 27° (NNE) 4,606 ? -42.1°
Maximum altitude 03:29:16 19° 68° (ENE) 3,935 ? -40.2°
Drops below altitude 10° 03:37:02 10° 108° (ESE) 4,680 ? -38.3°
Sets 03:42:04 0° 124° (SE) 5,691 ? -37.1°
